Weather History for Hill City, KS

Change the Weather History Date:

Friday, January 10, 2014

  Actual Average Record
Temperature  
Mean Temperature 34 °F 29 °F  
Max Temperature 39 °F 42 °F 78 °F (1990)
Min Temperature 29 °F 17 °F -14 °F (1988)
Degree Days  
Heating Degree Days 32    
Moisture  
Dew Point 30 °F    
Average Humidity 91    
Maximum Humidity 100    
Minimum Humidity 72    
Precipitation  
Precipitation 0.01 in 0.01 in 0.04 in (2011)
Month to date precipitation 0.03 0.08  
Year to date precipitation 0.03 0.08  
Sea Level Pressure  
Sea Level Pressure 29.69 in    
Wind  
Wind Speed 8 mph (West)    
Max Wind Speed 15 mph    
Max Gust Speed 22 mph    
Visibility 5 miles    
Events Fog , Rain , Snow    
T = Trace of Precipitation, MM = Missing Value Source: NWS Daily Summary

Daily Weather History Graph

Daily Weather History Graph

Search for Another Location

Airport:

Trip Planner

Search our weather history database for the weather conditions in past years. The results will help you decide how hot, cold, wet, or windy it might be!

Date:

Astronomy

Jan. 10, 2014 Rise Set
Actual Time 7:59 AM CST 5:35 PM CST
Civil Twilight 7:29 AM CST 6:04 PM CST
Nautical Twilight 6:56 AM CST 6:38 PM CST
Astronomical Twilight 6:23 AM CST 7:10 PM CST
Moon 1:39 PM CST (1/10) 3:08 AM CST (1/10)
Length of Visible Light 10h 35m
Length of Day
9h 36m
Waxing Gibbous, 75% of the Moon is Illuminated
Jan 10
Waxing Gibbous
Jan 15
Full
Jan 23
Last Quarter
Jan 30
New
Feb 6
First Quarter

Hourly Weather History & Observations

Time (CST) Temp. Windchill Dew Point Humidity Pressure Visibility Wind Dir Wind Speed Gust Speed Precip Events Conditions
12:53 AM 32.0 °F 24.2 °F 28.9 °F 88% 29.81 in 6.0 mi South 9.2 mph - N/A   Overcast
1:53 AM 32.0 °F 24.8 °F 28.9 °F 88% 29.78 in 6.0 mi South 8.1 mph - N/A   Overcast
2:53 AM 32.0 °F 23.0 °F 28.9 °F 88% 29.75 in 7.0 mi South 11.5 mph - N/A   Overcast
3:45 AM 32.0 °F 27.5 °F 30.0 °F 92% 29.68 in 4.0 mi SSE 4.6 mph - N/A   Overcast
3:53 AM 32.0 °F 26.4 °F 30.0 °F 92% 29.72 in 4.0 mi SE 5.8 mph - N/A   Overcast
4:21 AM 30.9 °F 24.3 °F 30.0 °F 96% 29.65 in 2.5 mi SE 6.9 mph - N/A   Overcast
4:36 AM 30.9 °F 26.2 °F 30.0 °F 96% 29.65 in 1.8 mi SE 4.6 mph - N/A   Overcast
4:53 AM 30.9 °F 25.2 °F 30.0 °F 96% 29.68 in 1.0 mi ESE 5.8 mph - N/A   Overcast
5:00 AM 30.9 °F 24.3 °F 30.0 °F 96% 29.63 in 0.8 mi ESE 6.9 mph - N/A   Mist
5:32 AM 30.9 °F 26.2 °F 30.0 °F 96% 29.63 in 0.2 mi East 4.6 mph - N/A Fog Light Freezing Fog
5:53 AM 30.9 °F - 30.0 °F 96% 29.70 in 0.2 mi Calm Calm - N/A Fog Light Freezing Fog
6:21 AM 30.9 °F - 30.9 °F 100% 29.66 in 0.5 mi Calm Calm - N/A Fog Light Freezing Fog
6:53 AM 30.9 °F 27.5 °F 30.0 °F 96% 29.70 in 0.5 mi North 3.5 mph - N/A Fog Light Freezing Fog
7:19 AM 30.9 °F 26.2 °F 30.0 °F 96% 29.66 in 1.0 mi NW 4.6 mph - N/A   Overcast
7:53 AM 30.9 °F 23.5 °F 30.0 °F 96% 29.71 in 1.2 mi WNW 8.1 mph - 0.00 in Snow Light Snow
8:02 AM 30.9 °F 24.3 °F 30.0 °F 96% 29.66 in 1.5 mi WNW 6.9 mph - 0.00 in Snow Light Snow
8:21 AM 30.9 °F 24.3 °F 30.0 °F 96% 29.65 in 2.5 mi WNW 6.9 mph - 0.00 in   Overcast
8:28 AM 30.9 °F 25.2 °F 28.9 °F 92% 29.65 in 3.0 mi WNW 5.8 mph - 0.00 in   Overcast
8:53 AM 30.9 °F 27.5 °F 30.0 °F 96% 29.69 in 3.0 mi West 3.5 mph - 0.00 in   Overcast
9:53 AM 32.0 °F 26.4 °F 30.0 °F 92% 29.68 in 4.0 mi West 5.8 mph - N/A   Overcast
10:53 AM 33.1 °F 27.7 °F 30.9 °F 92% 29.69 in 6.0 mi West 5.8 mph - N/A   Overcast
11:53 AM 36.0 °F 31.1 °F 32.0 °F 86% 29.66 in 10.0 mi West 5.8 mph - 0.00 in   Overcast
12:53 PM 37.0 °F 28.1 °F 32.0 °F 82% 29.62 in 10.0 mi WNW 15.0 mph - 0.00 in Snow Light Snow
1:53 PM 35.1 °F 27.4 °F 30.9 °F 85% 29.61 in 6.0 mi WNW 10.4 mph - 0.00 in Snow Light Snow
2:53 PM 36.0 °F 27.1 °F 33.1 °F 89% 29.61 in 10.0 mi NW 13.8 mph 21.9 mph 0.00 in Rain Light Rain
3:53 PM 39.0 °F 30.6 °F 34.0 °F 82% 29.62 in 10.0 mi NW 15.0 mph - 0.00 in   Overcast
4:53 PM 37.9 °F 29.6 °F 34.0 °F 86% 29.65 in 10.0 mi NNW 13.8 mph - 0.01 in Rain Light Rain
5:53 PM 37.9 °F 30.0 °F 34.0 °F 86% 29.68 in 10.0 mi NW 12.7 mph - 0.00 in   Overcast
6:53 PM 37.0 °F 28.9 °F 33.1 °F 86% 29.71 in 10.0 mi NW 12.7 mph - N/A   Overcast
7:53 PM 36.0 °F 28.5 °F 32.0 °F 86% 29.73 in 10.0 mi NW 10.4 mph - N/A   Mostly Cloudy
8:53 PM 35.1 °F 27.4 °F 30.9 °F 85% 29.76 in 10.0 mi WNW 10.4 mph - N/A   Scattered Clouds
9:53 PM 30.0 °F 21.1 °F 28.0 °F 92% 29.78 in 10.0 mi West 10.4 mph - N/A   Clear
10:53 PM 28.9 °F 20.4 °F 26.1 °F 89% 29.79 in 10.0 mi West 9.2 mph - N/A   Clear
11:53 PM 28.9 °F 20.4 °F 21.0 °F 72% 29.81 in 10.0 mi West 9.2 mph - N/A   Clear